Terminal Aerodrome Forecast
Issued by NWS Binghamton, NY

Home | Current Version | Previous Version | Text Only | Print | Product List | Glossary On
Versions: 1 2 3 4 5 6 7 8 9 10 11 12 13 14 15 16 17 18 19 20 21 22 23
000
FTUS41 KBGM 302130 AAB
TAFSYR
TAF AMD
KSYR 302130Z 3022/0118 10010KT P6SM FEW025 BKN050
      TEMPO 3022/0102 5SM -TSRA OVC025CB
     FM010400 15005KT P6SM OVC060
     FM011500 23010KT P6SM BKN050=

USA.gov is the U.S. government's official web portal to all federal, state and local government web resources and services.